Regional Weather Roundup
Issued by NWS

Home | Current Version | Previous Version | Text Only | Print | Product List | Glossary Off
Versions: 1 2 3 4 5 6 7 8 9 10 11 12 13 14 15 16 17 18 19 20 21 22 23 24 25 26 27 28 29 30 31 32 33 34 35 36 37 38 39 40 41 42 43 44 45 46 47 48 49 50

000
ASUS43 KDMX 162206
RWRIA

WEATHER ROUNDUP FOR IOWA
NATIONAL WEATHER SERVICE DES MOINES IA
400 PM CST THU NOV 16 2017

NOTE: "FAIR" INDICATES FEW OR NO CLOUDS BELOW 12,000 FEET WITH NO
SIGNIFICANT WEATHER AND/OR OBSTRUCTIONS TO VISIBILITY.

* - THESE STATIONS ARE NOT NWS STATIONS...THUS NOT UNDER NWS
QUALITY CONTROL.  THEY ALSO DO NOT REPORT WEATHER SUCH
AS PRECIPITATION OR FOG.

IAZ001>003-012>014-020>022-031>034-043>046-162300-
   NORTHWEST IOWA

CITY           SKY/WX    TMP DP  RH WIND       PRES   REMARKS
CARROLL *      PTCLDY    43  28  56 SE16      30.04F
CHEROKEE *     PTCLDY    38  28  66 SE10G20   29.99F WCI  32
DENISON *      CLEAR     45  27  49 SE15G21   30.02F
LE MARS *      CLOUDY    45  25  45 SE17G29   29.93F
ORANGE CITY *  CLEAR     41  28  60 SE12G20   29.93F
SHELDON *      CLOUDY    34  27  75 SE21G28   29.93F WCI  22
SIOUX CITY     CLOUDY    47  27  45 SE17G28   29.93F
SPENCER        CLOUDY    32  26  78 SE18      29.99F WCI  20
STORM LAKE *   CLEAR     34  27  75 SE18      30.00F WCI  23
$$

IAZ055>058-069>071-079>083-090>094-162300-
   SOUTHWEST IOWA

CITY           SKY/WX    TMP DP  RH WIND       PRES   REMARKS
ATLANTIC *     CLEAR     46  27  46 SE14      30.03F
AUDUBON *      CLEAR     45  28  53 SE13      30.04F
CLARINDA *     CLOUDY    46  28  49 SE12        N/A
COUNCIL BLFS * CLEAR     46  30  53 SE17      30.00F
CRESTON *      PTCLDY    45  27  49 SE13      30.08F
HARLAN  *      CLEAR     46  27  46 SE12      30.05F
LAMONI         CLEAR     44  28  53 SE8       30.10F
RED OAK *      CLEAR     48  28  46 SE10G17   30.04S
SHENANDOAH *   CLEAR     46  28  49 SE13G20   30.04S
$$

IAZ047>049-059>061-072>074-084-162300-
   CENTRAL IOWA

CITY           SKY/WX    TMP DP  RH WIND       PRES   REMARKS
AMES           PTCLDY    33  29  85 SE10      30.12F WCI  25
ANKENY *       MOCLDY    36  28  75 E8        30.14F WCI  29
BOONE *        PTCLDY    32  28  86 SE13      30.09F WCI  22
CHARITON *     CLOUDY    43  30  61 SE6       30.11S
DES MOINES     MOCLDY    39  27  62 E12       30.12F WCI  32
GRINNELL*      PTCLDY    33  28  83 SE9       30.16S WCI  25
KNOXVILLE *    CLEAR     39  28  65 E9        30.11F WCI  33
MARSHALLTOWN   MOCLDY    34  28  79 E9        30.13F WCI  27
NEWTON *       PTCLDY    34  28  80 SE10      30.14S WCI  26
PELLA *        CLEAR     37  29  73 E7        30.16R WCI  31
PERRY *          N/A     40  28  60 E12       30.09F WCI  34
$$

IAZ004>006-015-016-023>025-035-036-162300-
   NORTH CENTRAL IOWA

CITY           SKY/WX    TMP DP  RH WIND       PRES   REMARKS
ALGONA *         N/A     32  32 100 SE14      30.07F WCI  22
CLARION *      PTCLDY    32  32 100 SE15      30.10F WCI  22
ESTHERVILLE    CLOUDY    29  27  92 SE20      30.03F WCI  16
FORT DODGE *   CLOUDY    32  27  81 SE9       30.09F WCI  24
MASON CITY     CLOUDY    31  25  78 SE16      30.11F WCI  20
FOREST CITY *    N/A     32  28  86 SE13      30.09F WCI  22
WEBSTER CITY * CLOUDY    32  28  86 SE12      30.08F WCI  23
IOWA FALLS *   MOCLDY    32  29  88 E9        30.13F WCI  24
$$

IAZ007>011-017>019-026>030-037>042-050>054-066-162300-
   NORTHEAST IOWA

CITY           SKY/WX    TMP DP  RH WIND       PRES   REMARKS
CEDAR RAPIDS   CLEAR     36  28  73 SE8       30.16F WCI  30
CHARLES CITY * PTCLDY    34  28  80 SE9       30.15F WCI  26
CLINTON *      CLOUDY    35  28  75 SE8       30.23S WCI  29
DECORAH *      PTCLDY    34  27  75 SE6       30.16F WCI  29
DUBUQUE        CLOUDY    36  26  67 S8        30.19S WCI  30
MONTICELLO *   PTCLDY    37  27  65 SE7G13    30.19S WCI  32
OELWEIN *      CLOUDY    34  30  86 SE10      30.16F WCI  26
WATERLOO       PTCLDY    34  26  72 SE8       30.16F WCI  27
$$

IAZ064-065-067-068-078-162300-
   EAST CENTRAL IOWA

CITY           SKY/WX    TMP DP  RH WIND       PRES   REMARKS
DAVENPORT      CLEAR     36  27  69 SE7       30.24S WCI  30
IOWA CITY      CLEAR     39  28  64 SE8       30.20F WCI  33
MT. PLEASANT * PTCLDY    36  29  76 E8        30.20S WCI  29
MUSCATINE *    CLOUDY    37  28  70 S7        30.22S WCI  32
QUAD CITIES    CLEAR     38  27  64 SE8       30.22S WCI  32
$$

IAZ062-063-075>077-085>089-095>099-162300-
   SOUTHEAST IOWA

CITY           SKY/WX    TMP DP  RH WIND       PRES   REMARKS
BURLINGTON     CLOUDY    35  29  78 E8        30.21R WCI  29
FAIRFIELD *    MOCLDY    36  28  75 E13       30.16F WCI  27
FORT MADISON * CLEAR     36  30  80 E9        30.21S WCI  29
KEOKUK *       CLEAR     41  30  65 E9        30.19R
OSKALOOSA *      N/A     36  29  75 E8        30.17S WCI  30
OTTUMWA        CLEAR     38  29  70 E9        30.16F WCI  31
WASHINGTON *   CLOUDY    36  30  80 SE10      30.20F WCI  28
$$

ABBREVIATIONS USED IN REMARKS
   TC - TEMPERATURES IN CELSIUS
  WCI - WIND CHILL INDEX
   HX - HEAT INDEX
  VSB - VISIBILITY
$$





USA.gov is the U.S. government's official web portal to all federal, state and local government web resources and services.